TimeEST,TemperatureF,Dew PointF,Humidity,Sea Level PressureIn,VisibilityMPH,Wind Direction,Wind SpeedMPH,Gust SpeedMPH,PrecipitationIn,Events,Conditions,WindDirDegrees,DateUTC
12:53 AM,30.0,25.0,82,30.24,10.0,Calm,Calm,-,N/A,,Overcast,0,2012-11-27 05:53:00
1:53 AM,28.9,26.1,89,30.26,10.0,SE,3.5,-,N/A,,Mostly Cloudy,130,2012-11-27 06:53:00
2:53 AM,27.0,25.0,92,30.26,10.0,SSW,3.5,-,N/A,,Mostly Cloudy,200,2012-11-27 07:53:00
3:53 AM,27.0,25.0,92,30.26,10.0,Calm,Calm,-,N/A,,Mostly Cloudy,0,2012-11-27 08:53:00
4:53 AM,27.0,25.0,92,30.25,10.0,Calm,Calm,-,N/A,,Mostly Cloudy,0,2012-11-27 09:53:00
5:53 AM,28.0,26.1,92,30.26,10.0,SSW,3.5,-,N/A,,Mostly Cloudy,200,2012-11-27 10:53:00
6:53 AM,26.1,25.0,96,30.27,10.0,Calm,Calm,-,N/A,,Scattered Clouds,0,2012-11-27 11:53:00
7:53 AM,26.1,25.0,96,30.28,9.0,Calm,Calm,-,N/A,,Clear,0,2012-11-27 12:53:00
8:53 AM,30.0,27.0,88,30.30,9.0,Calm,Calm,-,N/A,,Overcast,0,2012-11-27 13:53:00
9:53 AM,36.0,23.0,59,30.30,10.0,Calm,Calm,-,N/A,,Overcast,0,2012-11-27 14:53:00
10:53 AM,39.0,21.9,50,30.30,10.0,SSW,9.2,-,N/A,,Overcast,200,2012-11-27 15:53:00
11:53 AM,37.9,26.1,62,30.28,10.0,SSE,8.1,-,N/A,,Scattered Clouds,160,2012-11-27 16:53:00
12:53 PM,37.0,26.1,65,30.27,10.0,SE,9.2,-,N/A,,Overcast,140,2012-11-27 17:53:00
1:53 PM,37.9,23.0,55,30.25,10.0,South,8.1,-,N/A,,Overcast,180,2012-11-27 18:53:00
2:53 PM,37.4,24.8,60,30.22,10.0,SE,5.8,-,N/A,,Overcast,130,2012-11-27 19:53:00
3:53 PM,36.0,26.1,67,30.26,10.0,South,5.8,-,N/A,,Overcast,170,2012-11-27 20:53:00
4:53 PM,34.0,26.1,73,30.27,10.0,South,4.6,-,N/A,,Overcast,170,2012-11-27 21:53:00
5:53 PM,34.0,27.0,75,30.27,10.0,South,3.5,-,N/A,,Overcast,180,2012-11-27 22:53:00
6:53 PM,33.1,28.0,82,30.29,10.0,SSW,4.6,-,N/A,,Overcast,200,2012-11-27 23:53:00
7:53 PM,33.1,28.9,85,30.28,9.0,Calm,Calm,-,N/A,,Overcast,0,2012-11-28 00:53:00
8:53 PM,30.9,28.0,89,30.28,7.0,Calm,Calm,-,N/A,,Overcast,0,2012-11-28 01:53:00
9:53 PM,30.0,28.9,96,30.28,6.0,Calm,Calm,-,N/A,,Overcast,0,2012-11-28 02:53:00
10:53 PM,30.0,28.0,92,30.28,6.0,Calm,Calm,-,N/A,,Overcast,0,2012-11-28 03:53:00
11:53 PM,30.0,28.0,92,30.27,5.0,Calm,Calm,-,N/A,,Overcast,0,2012-11-28 04:53:00